This demonstration page uses our WeatherBlox Daily Observations layout. Learn more.

Left ArrowRight Arrow

41.55636, -103.73856

Hourly Observations for January 12, 2015

Temp ( °F °C ) Dew Point ( °F °C ) Humidity (%) Winds ( mph kmh ) Pressure ( in mb ) Visibility ( mi km ) Precip ( " mm )
12:53 am 00:53 Cloudy with Light Snow 18 -7.8 15 -9.4 88 88 Calm 30.50 1033 1 2 0.03 0.76
1:15 am 01:15 Mostly Cloudy with Light Snow 18 -7.8 15 -9.4 88 88 Calm 30.62 1037 1 2 0.01 0.25
1:34 am 01:34 Cloudy with Light Snow 18 -8 14 -10 86 86 ENE 7 11 30.62 1037 1 2 0.00 0.00
1:53 am 01:53 Cloudy with Light Snow 18 -7.8 14 -10 84 84 E 6 9 30.54 1034 2 2 0.03 0.76
2:07 am 02:07 Cloudy with Light Snow 18 -7.8 15 -9.4 88 88 SE 6 9 30.65 1038 3 4 0.00 0.03
2:23 am 02:23 Cloudy with Light Snow 17 -8.3 14 -10 88 88 ESE 6 9 30.65 1038 3 5 0.00 0.03
2:53 am 02:53 Cloudy with Light Snow 17 -8.3 14 -10 88 88 E 5 7 30.56 1035 6 10 0.00 0.03
3:53 am 03:53 Cloudy with Light Snow 17 -8.3 13 -10.6 84 84 E 7 11 30.56 1035 5 8 0.00 0.03
4:53 am 04:53 Cloudy 16 -8.9 12 -11.1 84 84 ESE 8 13 30.57 1035 10 16 0.00 0.03
5:53 am 05:53 Cloudy 16 -8.9 13 -10.6 88 88 ESE 6 9 30.59 1036 10 16 0.00 0.00
6:53 am 06:53 Cloudy 16 -8.9 12 -11.1 84 84 ESE 9 15 30.60 1036 10 16 0.00 0.00
7:53 am 07:53 Cloudy with Light Snow 16 -8.9 12 -11.1 84 84 ESE 12 19 30.61 1037 3 5 0.00 0.03
8:53 am 08:53 Cloudy with Light Snow 17 -8.3 13 -10.6 84 84 ESE 13 20 30.62 1037 3 5 0.01 0.25
9:53 am 09:53 Cloudy with Mist and Fog 17 -8.3 13 -10.6 84 84 ESE 14 22 30.63 1037 6 10 0.00 0.03
10:40 am 10:40 Cloudy with Light Snow 18 -8 12 -11 79 79 ESE 16 26 30.68 1039 2 3 0.00 0.00
10:50 am 10:50 Cloudy with Light Snow 18 -8 12 -11 79 79 ESE 16 26 30.68 1039 2 3 0.00 0.00
10:53 am 10:53 Cloudy with Light Snow 17 -8.3 13 -10.6 84 84 ESE 16 26 30.62 1037 2 3 0.00 0.03
11:28 am 11:28 Cloudy with Light Snow 18 -8 12 -11 79 79 ESE 14 22 30.65 1038 3 5 0.00 0.00
11:53 am 11:53 Cloudy with Mist and Fog 18 -7.8 14 -10 84 84 ESE 15 24 30.58 1036 6 10 0.00 0.03
12:53 pm 12:53 Cloudy 19 -7.2 15 -9.4 84 84 ESE 15 24 30.54 1034 10 16 0.00 0.00
1:37 pm 13:37 Cloudy 20 -6.7 16 -8.9 85 85 SE 16 26 30.59 1036 10 16 0.00 0.00
1:53 pm 13:53 Cloudy 21 -6.1 16 -8.9 81 81 ESE 15 24 30.50 1033 10 16 0.00 0.00
2:53 pm 14:53 Cloudy 22 -5.6 17 -8.3 82 82 ESE 15 24 30.49 1033 9 14 0.00 0.00
3:50 pm 15:50 Cloudy 21 -6 18 -8 86 86 ESE 17 28 30.56 1035 10 16 0.00 0.00
3:53 pm 15:53 Cloudy 21 -6.1 17 -8.3 85 85 ESE 17 28 30.48 1032 10 16 0.00 0.00
4:19 pm 16:19 Cloudy 21 -6.1 17 -8.3 85 85 ESE 16 26 30.56 1035 10 16 0.00 0.00
4:53 pm 16:53 Cloudy 21 -6.1 17 -8.3 85 85 ESE 15 24 30.49 1033 10 16 0.00 0.00
5:53 pm 17:53 Cloudy 21 -6.1 17 -8.3 85 85 ESE 13 20 30.50 1033 10 16 0.00 0.00
6:53 pm 18:53 Cloudy 20 -6.7 17 -8.3 89 89 ESE 16 26 30.50 1033 9 14 0.00 0.00
7:53 pm 19:53 Cloudy 20 -6.7 17 -8.3 89 89 ESE 16 26 30.49 1033 7 11 0.00 0.00
8:53 pm 20:53 Cloudy 20 -6.7 17 -8.3 89 89 ESE 16 26 30.48 1032 8 13 0.00 0.00
9:53 pm 21:53 Cloudy 20 -6.7 17 -8.3 89 89 ESE 15 24 30.46 1032 10 16 0.00 0.00
10:53 pm 22:53 Cloudy 20 -6.7 17 -8.3 89 89 ESE 16 26 30.44 1031 9 14 0.00 0.00
11:53 pm 23:53 Cloudy 20 -6.7 16 -8.9 85 85 ESE 14 22 30.41 1030 10 16 0.00 0.00

Powered by AerisWeather